www.pogodaiklimat.ru

Погода и климат >> Архив погоды >> Индия >> Panjim


ПОГОДА в Panjim

  • Прогноз погоды в Panjim
  • Монитор погоды в Panjim
  • Климат города

АРХИВ ПОГОДЫ в Panjim

Время (UTC), дата Ветер
(напр.,м/с)
 
Видим.   Явления Облачность Т
(С)
Тd
(С)
f
(%)
Тe
(С)
Тes
(С)
Комфортность P
(гПа)
Po
(гПа)
Тmin
(С)
Tmax
(С)
R
(мм)
R24
(мм)
S
(см)
12 8.08 ЮЗ 4 4000 м в посл. час дождь 10/5 300 м
[St Ac trans Ci sp]
+27.6 +24.5 83 +39 +39 очень
душно
1005.1 1005.0 +27.0 +30.8 0.8
15 8.08 З 3 4000 м {морось} 9/4 300 м
[Sc diur, vesp Ac trans Ci sp]
+27.4 +25.5 89 +40 +40 очень
душно
1006.8 1007.0 0.8
18 8.08 З 3 4000 м {морось} 9/5 300 м
[Sc diur, vesp Ac trans Ci sp]
+27.2 +25.5 90 +40 +40 очень
душно
1007.2 1007.0 0.8
21 8.08 З 3 4000 м {дождь} 9/5 300 м
[Sc diur, vesp Ac trans Ci sp]
+27.0 +25.6 92 +40 +40 очень
душно
1006.2 1006.0 0.8
00 9.08 З 3 4000 м {дождь} 10/5 300 м
[Frnb Ac trans Ci sp]
+27.0 +25.6 92 +40 +40 очень
душно
1006.8 1007.0 0.9
03 9.08 ЮЗ 3 4000 м мгла 9/3 600 м
[Sc diur, vesp Ac trans Ci sp]
+27.4 +25.5 89 +40 +42 очень
душно
1009.1 1009.0 +26.2 +30.8 0.9
06 9.08 ЮЗ 3 4000 м мгла 9/3 600 м
[Sc diur, vesp Ac trans Ci sp]
+29.2 +25.6 81 +43 +51 опасность
перегрева
1009.8 1010.0
09 9.08 З 2 4000 м мгла 9/3 600 м
[Sc diur, vesp Ac trans Ci sp]
+28.8 +25.4 82 +42 +49 опасность
перегрева
1008.5 1009.0
12 9.08 З 2 4000 м {дождь} 9/3 300 м
[Frnb Ac trans Ci sp]
+28.4 +25.6 85 +42 +43 опасность
перегрева
1008.7 1009.0 +30.3 1
15 9.08 ЮЗ 3 4000 м 8/5 600 м
[Sc diur, vesp Ci sp]
+27.4 +25.1 87 +39 +39 очень
душно
1009.5 1010.0 1
18 9.08 З 2 4000 м в посл. час дождь 8/3 300 м
[Frnb Ac trans Ci sp]
+26.0 +25.1 95 +37 +37 очень
душно
1010.6 1011.0 2
21 9.08 З 4 4000 м в посл. час гроза {снег} 9/3 300 м
[Cu Sc Ac trans]
+25.6 +23.9 90 +35 +35 очень
душно
1013.0 1013.0 0.8
00 10.08 З 2 4000 м {дождь} 9/5 300 м
[Frnb Ac trans Ci sp]
+26.0 +24.3 90 +36 +36 очень
душно
1009.0 1009.0 2
03 10.08 З 2 4000 м мгла {дождь} 9/3 300 м
[Frnb Ac trans Ci sp]
+28.0 +25.4 86 +41 +43 опасность
перегрева
1010.8 1011.0 +25.6 +30.3 2
06 10.08 З 2 4000 м в посл. час дождь 9/4 300 м
[Frnb Ac trans Ci sp]
+28.2 +25.7 86 +42 +49 опасность
перегрева
1011.1 1011.0 0.4
09 10.08 З 5 4000 м в посл. час дождь 10/6 300 м
[Frnb Ac trans]
+29.4 +26.7 85 +45 +47 опасность
перегрева
1009.7 1010.0 0.8
12 10.08 З 4 4000 м сильный дождь 10/8 300 м
[Frnb Ac trans]
+27.0 +25.0 89 +39 +39 очень
душно
1009.4 1009.0 +30.8 1
15 10.08 СЗ 2 4000 м в посл. час дождь 8/4 300 м
[Frnb Ac trans Ci sp]
+26.6 +24.9 90 +38 +38 очень
душно
1010.2 1010.0 8
18 10.08 З 3 4000 м в посл. час дождь 10/5 300 м
[Frnb Ac As]
+26.6 +24.6 89 +38 +38 очень
душно
1011.1 1011.0 8
21 10.08 З 2 4000 м 8/3 600 м
[Sc diur, vesp Ac trans Ci sp]
+26.4 +25.0 92 +38 +38 очень
душно
1009.3 1009.0 8
00 11.08 ЮЗ 3 4000 м в посл. час дождь 9/4 300 м
[Frnb Ac trans Ci sp]
+24.6 +24.0 96 +34 +34 очень
душно
1008.6 1009.0 10
03 11.08 З 4 4000 м в посл. час дождь 10/8 300 м
[Frnb Ac trans]
+26.6 +25.2 92 +38 +39 очень
душно
1009.9 1010.0 +24.0 +30.8 11
06 11.08 З 4 4000 м {дождь} 10/8 300 м
[Frnb Ac trans]
+29.4 +25.5 80 +43 +45 опасность
перегрева
1010.1 1010.0 0.2
09 11.08 СЗ 3 4000 м {морось} 10/6 300 м
[Frnb Ac trans]
+27.0 +25.6 92 +40 +42 очень
душно
1008.5 1009.0 0.2
12 11.08 СЗ 3 4000 м {дождь} 10/8 300 м
[Frnb Ac trans]
+26.6 +24.3 87 +37 +37 очень
душно
1007.6 1008.0 +30.0 0.4
15 11.08 ЮЗ 3 4000 м {дождь} 9/5 300 м
[Sc diur, vesp Ac trans Ci sp]
+26.8 +24.8 89 +38 +38 очень
душно
1009.3 1009.0 0.5
18 11.08 ЮЗ 3 4000 м в посл. час дождь 10/5 300 м
[St Ac cuf]
+25.4 +24.3 94 +35 +35 очень
душно
1010.2 1010.0 2
21 11.08 СЗ 3 4000 м дымка {дождь} 8/3 300 м
[Cu Sc Ac trans]
+24.4 +22.9 91 +32 +32 очень
душно
1009.6 1010.0 1
00 12.08 штиль 0 4000 м дождь 10/5 600 м
[Sc As op]
+24.4 +22.6 90 +32 +32 очень
душно
1001.1 1009.0 205
03 12.08 ЮЗ 2 4000 м {дождь} 10/8 300 м
[Frnb Ac trans]
+25.2 +24.7 97 +35 +36 очень
душно
1007.8 1008.0 +24.0 +30.0 18
06 12.08 З 2 4000 м {дождь} 10/5 300 м
[Frnb Ac As]
+26.6 +25.8 95 +39 +42 очень
душно
1008.0 1008.0 2
09 12.08 З 4 4000 м {дождь} 10/8 300 м
[Frnb Ac trans]
+27.0 +25.6 92 +40 +41 очень
душно
1006.3 1006.0 6
12 12.08 З 4 4000 м {дождь} 10/8 300 м
[Frnb Ac As]
+26.4 +25.3 94 +38 +38 очень
душно
1005.3 1005.0 +27.6 6
15 12.08 З 4 4000 м в посл. час дождь 10/6 300 м
[Frnb Ac As]
+25.8 +24.6 93 +36 +36 очень
душно
1006.1 1006.0 7
18 12.08 З 4 4000 м в посл. час дождь 10/6 300 м
[Frnb Ac As]
+25.8 +24.1 90 +36 +36 очень
душно
1007.2 1007.0 9
21 12.08 З 3 4000 м {дождь} 10/5 300 м
[Frnb Ac As]
+25.6 +25.0 96 +36 +36 очень
душно
1005.1 1005.0 18
00 13.08 ЮЗ 3 4000 м слабый дождь 10/5 300 м
[Frnb Ac As]
+24.2 +23.9 98 +33 +33 очень
душно
1005.0 1005.0 34
03 13.08 З 3 4000 м {дождь} 10/5 300 м
[Frnb Ac As]
+25.2 +24.4 95 +35 +36 очень
душно
1006.3 1006.0 +24.0 +27.6 35
06 13.08 З 3 4000 м {дождь} 10/6 300 м
[Frnb Ac trans]
+27.6 +25.4 88 +40 +43 очень
душно
1006.7 1007.0 0.4
09 13.08 З 6 4000 м {дождь, морось} 10/5 300 м
[Frnb Ac As]
+27.0 +25.6 92 +40 +41 очень
душно
1006.0 1006.0 0.9
12 13.08 З 3 4000 м слабый дождь 10/5 300 м
[Frnb Ac As]
+27.0 +25.6 92 +40 +40 очень
душно
1005.2 1005.0 +28.3 1
15 13.08 З 4 4000 м {дождь} 10/8 300 м
[Frnb Ac trans]
+26.6 +25.2 92 +38 +38 очень
душно
1006.9 1007.0 1
18 13.08 З 5 4000 м {дождь} 10/6 300 м
[Frnb Ac trans]
+26.6 +25.2 92 +38 +38 очень
душно
1007.4 1007.0 1
21 13.08 З 6 4000 м 10/8 300 м
[Frnb Ac trans]
+26.4 +25.0 92 +38 +38 очень
душно
1005.5 1006.0 1
00 14.08 З 4 4000 м 10/5 300 м
[Sc Ac trans Ci sp]
+26.6 +25.2 92 +38 +38 очень
душно
1005.0 1005.0 1
03 14.08 ЮЗ 2 4000 м слабая морось 10/6 300 м
[Frnb Ac As]
+27.0 +25.6 92 +40 +40 очень
душно
1006.4 1006.0 +25.5 +28.3 1
06 14.08 З 3 4000 м {морось} 10/5 300 м
[Frnb Ac As]
+28.6 +26.1 86 +43 +46 опасность
перегрева
1006.5 1007.0 0.0
09 14.08 З 4 4000 м 10/6 300 м
[Frnb Ac trans]
+30.0 +25.8 78 +45 +46 опасность
перегрева
1005.1 1005.0 0.0
12 14.08 СЗ 5 4000 м слабый дождь 10/8 300 м
[Frnb Ac As]
+26.0 +25.2 95 +37 +37 очень
душно
1004.4 1004.0 +25.0 +30.8 6
15 14.08 З 3 4000 м слабая морось {дождь} 10/6 300 м
[Frnb Ac As]
+25.8 +24.6 93 +36 +36 очень
душно
1005.0 1005.0 6
18 14.08 З 5 4000 м {дождь} 10/5 300 м
[Frnb Ac As]
+25.4 +24.2 93 +35 +35 очень
душно
1006.2 1006.0 6
21 14.08 З 5 4000 м слабый дождь 10/5 300 м
[Sc diur, vesp Ac As]
+25.0 +24.4 96 +35 +35 очень
душно
1005.2 1005.0 12
00 15.08 З 3 4000 м {дождь} 9/4 300 м
[Frnb Ac As Ci sp]
+25.6 +24.7 95 +36 +36 очень
душно
1004.6 1005.0 12
03 15.08 З 3 4000 м {дождь} 10/5 300 м
[Frnb Ac trans]
+26.6 +25.2 92 +38 +40 очень
душно
1006.0 1006.0 +24.0 +30.8 12
06 15.08 З 4 4000 м {дождь} 10/5 600 м
[Sc diur, vesp Ac trans]
+28.6 +25.8 85 +43 +45 опасность
перегрева
1006.3 1006.0 0.2

 

Местоположение метеостанции Panjim (Goa, Индия): широта 15.48 долгота 73.82 высота над уровнем моря 60 м.

В архиве по умолчанию представлена погода в Panjim за последнюю неделю. Архивные данные за месяц целиком и за предыдущие месяцы, начиная с января 2011 года, Вы можете получить, выбрав интересующий диапазон дат из раскрывающегося списка и нажав кнопку "Ввод!".


*Определитесь, кто Вы:
робот инопланетянин человек

Внимание! Время в таблицах - всемирное. Для получения местного времени необходимо прибавить поправку, которая в Panjim равна 5.5 ч.

Смотрите также архив погоды в соседних городах и на ближайших метеорологических станциях:

Погода в Mormugao (Goa, Индия) (8 км)
Погода в Vengurla (Maharashtra, Индия) (48 км)
Погода в Karwar (Karnataka, Индия) (85 км)
Погода в Belgaum (Karnataka, Индия) (86 км)
Погода в Belgaum Airport (Karnataka, Индия) (95 км)
Погода в Dharwad (Karnataka, Индия) (124 км)
Погода в Kolhapur (Maharashtra, Индия) (143 км)
Погода в Honavar (Karnataka, Индия) (150 км)
Погода в Sangli (Maharashtra, Индия) (174 км)
Погода в Shirali (Karnataka, Индия) (174 км)

Пояснения к столбцам:

Ветер - указаны скорость ветра в м/с - средняя за 10 мин, порывы в срок и между сроками (в фигурных скобках) и направление, откуда дует ветер: С - северный, СВ - северо-восточный, В - восточный, ЮВ - юго-восточный, Ю - южный, ЮЗ - юго-западный, З - западный, СЗ - северо-западный.
Видимость - горизонтальная дальность видимости в метрах или километрах. При видимости от 1 до 10 км при отсутствии осадков обычно наблюдается дымка, при ухудшении видимости до 1 км и менее - туман. В сухую погоду видимость может ухудшаться дымом, пылью или мглою.
Явления - указаны атмосферные явления, наблюдавшиеся в срок или в последний час перед сроком; фигурными скобками обозначены явления, наблюдавшиеся между сроками (за 1-3 часа до срока); квадратными скобками обозначены град или гололедные отложения с указанием их диаметра в мм.
Облачность - указаны через наклонную черту общая и нижняя облачность в баллах и высота нижней границы облаков в метрах; квадратными скобками обозначены формы облаков: Ci - перистые, Cs - перисто-слоистые, Cc - перисто-кучевые, Ac - высококучевые, As - высокослоистые, Sc - слоисто-кучевые, Ns - слоисто-дождевые, Cu - кучевые, Cb - кучево-дождевые. Подробнее классификацию облаков см. в Атласе облаков (PDF).
T - Температура воздуха - температура, измеренная на высоте 2 м над землей.
Td - Температура точки росы - температура, при понижении до которой содержащийся в воздухе водяной пар достигнет насыщения.
f - Относительная влажность воздуха - влажноcть воздуха, измеренная на высоте 2 м над землей.
Te - Эффективная температура - температура, которую ощущает одетый по сезону человек в тени. Характеристика душности погоды. При расчете учитывается влияние влажности воздуха и скорости ветра на теплоощущения человека.
Tes - Эффективная температура на солнце - температура, которую ощущает человек, с поправкой на солнечный нагрев. Характеристика знойности погоды. Зависит от высоты солнца над горизонтом, облачности и скорости ветра. Ночью, в пасмурную погоду, а также при ветре 12 м/с и более поправка равна нулю.
P - Атмосферное давление - приведенное к уровню моря атмосферное давление.
Po - Атмосферное давление - измеренное на уровне метеостанции атмосферное давление.
Tmin - Минимальная температура - минимум температуры воздуха на высоте 2 м над землей.
Tmax - Максимальная температура - максимум температуры воздуха на высоте 2 м над землей.
R - Количество осадков - Количество выпавших осадков за период времени, мм. При наведении курсора мыши на число - период времени, за который выпало указанное количество осадков.
R24 - Количество осадков - Количество выпавших осадков за 24 часа, мм.
S - Снежный покров - Высота снежного покрова, см. При наведении курсора мыши на число - состояние снежного покрова и степень покрытия местности в баллах.